カタログに戻る

STARLINK-32315

運用中通信VLEO
NORAD 60740·PAYLOAD·🇺🇸 United States

打ち上げ Aug 28, 2024 から Cape Canaveral Space Force Station

Loading…

次のパス (今後24時間)

TLE

最新Source: CelesTrak SupGP

元期: Sep 14, 2026, 21:34 UTC

1 60740C 24152W   26257.89909722 -.00039247  00000+0 -11598-2 0  2578
2 60740  53.1575 107.9005 0001340  87.0806 257.6344 15.34404127    17

AllMySatでSTARLINK-32315をリアルタイム追跡

Download on the App Store